SCP
0 0 0 0 0 0 0 0 0 0 0 0 0 0 0 0 0 0 0 0 0 0 0 0 0 0 0 0 0 0 0 0 0 0 0 0 0 0 0 0 0 0 0
0 0 0 0 0 0 0 0 0 0 0 0 0 0 0 0 0 0 0 0 0 0 0 0 0 0 0 0 0 0 0 0 0 0 0 0 0 0 0 0 0 0 0
0 -0 -0 0 0 0 0 0 0 -0 -0 0 0 0 0 0 0 0 0 0 0 0 0 0 0 0 0 0 0 0 0 0 0 0 0 0 0 0 0 0 0 0 0
0 -0 -0 -0 -0 0 0 0 0 0 0 -0 -0 0 0 0 0 0 0 0 0 0 0 0 0 0 0 0 0 0 0 0 0 0 0 0 0 0 0 0 0 0 0
0 0 -0 -0 0 -0 -0 0 0 0 0 0 -0 -0 0 0 0 0 0 0 0 0 0 0 0 0 0 0 0 0 0 0 0 0 0 0 0 0 0 0 0 0 0
-0 -0 -0 -0 -0 -0 -0 0 0 0 0 0 0 -0 -0 0 0 0 0 0 0 0 0 0 0 0 0 0 0 0 0 0 0 0 0 0 0 0 0 0 0 0 0
-0 -0 -0 -0 0 -0 0 -0 -0 -0 0 0 0 0 0 0 -0 0 0 0 0 0 0 0 0 0 0 0 0 0 0 0 0 0 0 0 0 0 0 0 0 0 0
-0 -0 -0 -0 -0 0 0 0 -0 -0 -0 0 0 0 0 0 -0 -0 -0 0 0 0 0 0 0 0 0 0 0 0 0 0 0 0 0 0 0 0 0 0 0 0 0
-0 -0 -0 -0 -0 -0 -0 0 0 -0 0 0 0 0 0 0 0 0 -0 0 0 0 0 0 0 0 0 0 0 0 0 0 0 0 0 0 0 0 0 0 0 0 0
0 0 0 0 0 0 0 0 0 -0 0 -0 0 0 0 0 0 0 0 0 0 0 0 0 0 0 0 0 0 0 0 0 0 0 0 0 0 0 0 0 0 0 0
0 0 0 0 0 0 0 0 0 0 0 0 0 0 0 0 0 0 0 0 0 0 0 0 0 0 0 0 0 0 0 0 0 0 0 0 0 0 0 0 0 0 0
0 0 0 0 0 0 0 0 0 0 0 0 0 0 -0 0 -0 0 0 0 0 0 0 0 0 0 0 0 0 0 0 0 0 0 0 0 0 0 0 0 0 0 0
0 0 0 0 0 0 0 0 0 0 0 0 0 0 0 0 0 0 0 0 0 0 0 0 0 0 0 0 0 0 0 0 0 0 0 0 0 0 0 0 0 0 0
0 0 0 0 0 0 0 0 0 0 0 0 0 0 0 0 0 0 0 0 0 0 0 0 0 0 0 0 0 0 0 0 0 0 0 0 0 0 0 0 0 0 0
0 0 0 0 0 0 0 0 0 0 0 0 0 0 0 0 0 0 0 0 0 0 0 0 0 0 0 0 0 0 0 0 0 0 0 0 0 0 0 0 0 0 0
0 0 0 0 0 0 0 0 0 0 0 0 0 0 0 0 0 0 0 0 -0 -0 0 0 0 0 0 0 0 0 0 0 0 0 0 0 0 0 0 0 0 0 0
0 0 0 0 0 0 0 0 0 0 0 0 0 0 0 0 0 0 0 0 0 -0 0 0 0 0 0 0 0 0 0 0 0 0 0 0 0 0 0 0 0 0 0
0 0 0 0 0 0 0 0 0 0 0 0 0 0 0 0 0 0 0 0 0 0 0 0 0 0 0 0 0 0 0 0 0 0 0 0 0 0 0 0 0 0 0
0 0 0 0 0 0 0 0 0 0 0 0 0 0 0 0 0 0 0 0 0 0 0 0 0 0 0 0 0 0 0 0 0 0 0 0 0 0 0 0 0 0 0
0 0 0 0 0 0 0 0 0 0 0 0 0 0 0 0 0 0 0 0 0 0 0 0 0 0 0 0 0 0 0 0 0 0 0 0 0 0 0 0 0 0 0
0 0 0 0 0 0 0 0 0 0 0 0 0 0 0 0 0 0 0 0 0 0 0 0 0 0 0 0 0 0 0 0 0 0 0 0 0 0 0 0 0 0 0
0 0 0 0 0 0 0 0 0 0 0 0 0 0 0 0 0 0 0 0 0 0 0 0 0 0 0 0 0 0 0 0 0 0 0 0 0 0 0 0 0 0 0
0 0 0 0 0 0 0 0 0 0 0 0 0 0 0 0 0 0 0 0 0 0 0 0 0 0 0 0 0 0 0 0 0 0 0 0 0 0 0 0 0 0 0
0 0 0 0 0 0 0 0 0 0 0 0 0 -0 -0 0 0 0 0 0 0 0 0 0 0 0 0 0 0 0 0 0 0 0 0 0 0 0 0 0 0 0 0
0 0 0 0 0 0 0 0 0 0 0 0 -0 0 0 -0 -0 -0 0 0 0 0 0 0 0 0 0 0 0 0 0 0 0 0 0 0 0 0 0 0 0 0 0
0 0 0 0 0 0 0 0 0 0 -0 0 0 -0 -0 -0 -0 -0 -0 0 0 0 0 0 0 0 0 0 0 0 0 0 0 0 0 0 0 0 0 0 0 0 0
Wind_Speed_500mb
57 57 52 54 56 51 48 42 42 46 43 43 47 55 65 75 86 105 114 115 112 112 113 113 109 105 100 93 84 75 70 64 58 53 54 52 53 49 41 34 25 19 21
51 48 50 51 51 54 55 53 50 40 48 54 51 56 60 70 77 91 107 121 120 114 116 115 115 112 109 102 95 86 80 72 68 64 58 59 59 53 47 40 30 26 25
51 53 52 50 51 49 53 54 54 57 53 46 50 57 60 68 77 85 89 114 125 118 116 117 119 121 118 113 106 97 88 82 75 72 66 64 63 58 54 47 39 31 29
60 56 57 59 59 56 53 53 55 56 57 59 57 50 56 61 71 81 90 99 110 119 123 120 120 126 126 124 114 107 97 91 87 81 75 69 66 62 57 52 45 34 33
61 65 66 63 63 65 63 62 60 57 60 58 61 64 60 64 71 76 84 97 104 108 118 123 125 126 128 128 124 118 108 101 96 90 85 79 74 70 66 58 49 38 39
52 59 67 75 80 72 72 73 74 72 69 69 65 61 64 62 75 74 73 80 95 106 116 122 126 129 133 133 131 124 117 113 107 99 92 87 79 75 69 62 52 43 38
57 58 66 74 81 87 87 84 83 83 81 78 76 72 71 69 62 69 71 71 76 95 108 118 123 128 134 136 136 130 126 120 110 100 97 91 83 77 68 63 56 49 41
72 73 74 74 79 86 92 94 96 97 97 94 90 83 78 80 72 59 65 73 77 85 101 114 121 123 131 138 139 138 136 126 118 107 96 83 76 71 66 60 53 47 42
86 87 88 88 88 88 92 98 104 109 109 106 105 99 90 87 82 72 58 68 81 90 96 108 118 124 130 132 139 141 137 129 118 109 100 91 84 76 66 64 58 52 45
96 101 102 104 107 108 108 108 109 109 117 121 117 112 102 97 85 84 65 65 78 94 94 105 112 121 119 121 122 131 139 139 127 115 101 94 84 78 74 70 60 51 43
95 108 116 120 123 129 130 127 123 121 119 121 129 125 117 103 93 85 80 68 81 88 94 102 108 110 102 113 103 118 135 131 128 112 100 95 86 79 73 78 61 53 46
115 123 125 125 126 125 123 129 126 121 121 123 120 131 125 114 98 88 83 83 76 85 90 97 100 98 90 102 90 102 105 110 114 109 107 102 95 81 83 73 60 51 45
121 126 127 122 117 112 106 107 97 103 101 111 102 103 117 114 105 90 88 82 79 85 97 103 97 89 70 82 84 101 91 106 111 113 112 105 92 83 84 70 57 54 49
117 119 110 100 99 94 88 83 81 80 82 82 80 83 88 82 101 93 88 78 80 77 91 102 89 76 65 82 79 94 92 101 109 115 108 95 84 87 75 65 61 51 46
101 100 94 88 85 84 81 80 78 81 78 82 82 75 74 79 83 73 80 78 68 74 83 98 84 76 68 90 86 102 94 99 96 96 97 91 87 79 69 64 56 49 45
87 85 84 86 86 85 87 91 80 78 79 83 90 93 103 94 82 70 60 61 49 48 83 91 80 83 81 90 90 103 101 99 95 91 87 84 82 75 67 61 54 47 46
81 83 84 81 81 83 83 84 88 82 72 72 72 78 86 91 84 78 70 62 52 47 89 87 84 85 80 86 89 105 107 101 94 90 87 86 77 70 67 57 52 49 42
79 82 83 82 79 80 81 82 81 78 77 77 55 55 49 57 61 68 74 59 55 56 88 85 80 78 78 94 94 97 94 92 85 89 88 84 84 80 71 61 53 44 35
74 79 80 81 81 81 81 82 80 76 73 73 66 49 31 38 44 59 58 67 57 62 79 78 75 73 80 83 90 97 98 93 88 88 87 87 79 68 59 51 45 41 37
69 69 69 72 76 77 75 71 69 67 64 62 53 44 36 37 35 34 54 66 54 54 70 72 72 75 79 84 92 93 94 95 92 88 83 77 67 62 56 47 43 36 31
65 68 64 63 66 69 68 68 62 56 51 47 42 39 36 38 34 26 35 60 47 41 68 71 74 67 63 74 82 86 89 93 89 81 74 68 60 52 45 42 36 34 30
57 54 55 54 53 54 56 55 45 42 41 46 42 38 33 27 26 23 33 45 44 42 55 69 63 61 61 68 72 75 83 80 78 74 67 57 49 44 42 40 35 30 25
47 47 46 46 43 41 39 34 34 34 31 29 28 25 20 15 10 20 33 40 36 32 27 44 54 60 56 53 50 54 66 70 70 63 55 50 46 46 43 36 30 25 23
42 41 42 41 40 38 37 35 32 29 26 24 21 16 10 1 13 25 26 26 22 27 34 40 45 47 39 33 38 46 53 54 51 47 42 40 41 39 35 32 28 24 22
44 42 40 40 40 38 37 36 34 32 30 28 23 17 12 10 17 17 15 17 23 31 38 41 37 34 35 45 53 55 54 49 43 40 37 41 39 34 30 27 23 21 25
50 47 45 43 42 40 39 39 38 37 36 32 27 23 19 18 20 20 22 26 33 40 43 42 44 46 48 50 48 43 39 37 36 38 38 35 31 28 24 19 18 22 27
Wind_Direction_500mb
1 1 1 359 359 359 2 343 319 307 299 284 274 271 270 264 252 244 243 241 237 235 234 233 232 231 231 230 229 230 232 231 230 232 225 226 223 224 232 233 239 254 276
359 351 351 350 350 352 354 350 349 328 307 299 284 269 263 264 262 253 246 244 239 235 236 236 234 232 231 231 229 230 232 232 232 234 230 226 225 229 233 236 240 250 268
354 348 349 347 345 346 343 344 345 339 336 321 296 285 274 264 259 258 256 250 245 241 238 238 237 236 234 231 229 227 229 230 231 231 230 228 228 228 230 235 238 248 264
345 346 344 342 342 340 337 334 333 335 331 328 326 306 284 277 265 259 256 253 251 247 243 240 238 239 237 235 232 232 229 228 228 227 228 229 228 227 228 233 237 243 258
334 336 338 337 333 332 333 331 327 324 324 323 321 320 312 287 274 265 259 258 255 252 249 244 241 240 240 239 237 234 231 228 227 227 226 226 227 228 230 233 236 242 255
323 325 327 327 327 328 327 327 325 323 323 320 315 311 307 307 286 275 267 262 261 255 251 247 243 241 241 238 237 237 238 235 230 228 229 230 230 231 230 233 239 245 247
312 312 315 315 315 316 319 320 320 320 320 318 316 310 302 299 298 282 271 263 262 261 256 252 248 244 242 239 238 236 236 235 237 240 235 234 231 231 233 234 238 243 243
304 302 303 302 303 307 310 311 313 313 312 311 310 309 303 295 295 293 272 266 256 256 259 255 252 249 246 241 237 235 234 232 231 230 231 237 238 235 233 235 236 236 238
305 303 303 301 299 298 298 301 303 304 304 304 302 302 303 297 294 287 272 261 260 252 256 257 253 250 248 246 238 236 234 233 230 228 228 228 228 231 230 229 228 229 232
307 304 303 300 298 296 294 292 292 292 294 296 296 295 295 295 292 287 277 261 258 257 254 254 252 250 246 247 242 238 235 231 226 223 222 225 226 229 232 233 228 225 226
303 301 299 298 297 296 295 292 290 288 286 285 288 289 288 287 289 287 281 266 258 251 246 247 249 244 239 244 237 240 240 235 228 225 223 222 221 221 227 230 224 223 223
301 300 298 297 295 295 293 292 289 287 284 281 279 281 283 283 284 282 279 272 256 247 243 245 246 248 246 242 227 231 230 228 228 221 218 217 218 220 229 224 223 223 225
303 300 299 298 295 294 293 291 288 287 283 280 278 275 276 277 278 279 276 271 265 241 244 244 246 248 243 230 219 218 221 223 225 218 217 215 217 227 222 218 220 223 228
303 302 302 300 298 295 290 285 283 280 277 274 272 268 269 269 272 272 272 273 267 251 239 241 239 239 242 227 215 213 210 223 222 218 214 214 217 217 214 215 218 223 232
307 304 300 298 296 294 289 285 280 276 272 273 271 269 268 266 264 269 270 269 266 256 234 233 228 232 230 214 209 207 208 212 208 209 208 209 212 210 208 211 216 224 232
300 299 297 295 294 292 290 289 286 280 277 272 269 266 265 260 265 262 262 260 260 253 230 222 215 219 221 204 198 200 203 205 207 208 208 210 206 205 207 209 216 225 236
306 306 303 297 293 290 289 288 289 292 287 280 274 267 261 262 257 259 263 258 255 233 223 218 215 214 216 201 198 200 197 206 210 208 207 204 204 204 204 210 218 225 231
315 312 305 299 295 292 290 288 287 288 291 292 285 274 266 265 246 248 253 254 250 225 219 215 213 214 210 201 199 197 197 199 201 202 202 204 198 202 204 206 214 221 232
315 310 307 304 302 298 293 289 286 285 285 290 296 288 279 267 260 250 238 234 245 231 216 210 213 205 206 196 200 203 203 199 203 201 202 201 201 200 200 204 214 225 231
316 316 317 313 310 305 300 292 287 285 285 288 294 297 290 288 283 254 230 225 240 231 213 204 203 199 206 210 206 206 204 204 204 203 201 200 196 198 206 209 214 221 237
326 324 325 322 316 315 313 306 306 302 296 294 298 300 291 290 287 263 235 219 234 230 207 204 201 208 218 217 214 209 205 205 205 203 200 195 196 199 200 207 214 225 240
330 331 334 333 333 331 322 318 314 313 313 310 307 302 303 287 271 263 223 207 223 230 214 212 213 218 218 220 218 214 207 205 201 197 193 190 191 194 204 210 217 229 247
343 344 346 347 347 347 348 345 338 329 321 315 317 318 324 326 272 231 218 221 230 231 213 209 211 207 209 212 216 214 205 197 193 190 186 185 190 199 204 210 220 237 258
358 358 357 359 2 4 6 6 5 2 358 355 354 351 341 287 190 186 198 201 206 192 186 187 193 196 193 193 191 186 182 179 177 178 181 186 195 201 207 214 224 241 269
18 17 16 15 16 18 20 22 22 23 22 22 27 34 48 101 139 137 157 168 175 175 168 167 169 165 161 159 160 164 167 169 173 176 178 190 198 203 207 217 235 262 283
33 34 35 35 34 33 32 33 34 33 32 35 44 57 74 96 106 111 124 135 140 142 141 141 141 144 149 154 158 159 162 164 169 179 187 193 199 206 215 228 244 275 293
Wind_Speed_850mb
57 57 52 54 56 51 48 42 42 46 43 43 47 55 65 75 86 105 114 115 112 112 113 113 109 105 100 93 84 75 70 64 58 53 54 52 53 49 41 34 25 19 21
51 48 50 51 51 54 55 53 50 40 48 54 51 56 60 70 77 91 107 121 120 114 116 115 115 112 109 102 95 86 80 72 68 64 58 59 59 53 47 40 30 26 25
51 53 52 50 51 49 53 54 54 57 53 46 50 57 60 68 77 85 89 114 125 118 116 117 119 121 118 113 106 97 88 82 75 72 66 64 63 58 54 47 39 31 29
60 56 57 59 59 56 53 53 55 56 57 59 57 50 56 61 71 81 90 99 110 119 123 120 120 126 126 124 114 107 97 91 87 81 75 69 66 62 57 52 45 34 33
61 65 66 63 63 65 63 62 60 57 60 58 61 64 60 64 71 76 84 97 104 108 118 123 125 126 128 128 124 118 108 101 96 90 85 79 74 70 66 58 49 38 39
52 59 67 75 80 72 72 73 74 72 69 69 65 61 64 62 75 74 73 80 95 106 116 122 126 129 133 133 131 124 117 113 107 99 92 87 79 75 69 62 52 43 38
57 58 66 74 81 87 87 84 83 83 81 78 76 72 71 69 62 69 71 71 76 95 108 118 123 128 134 136 136 130 126 120 110 100 97 91 83 77 68 63 56 49 41
72 73 74 74 79 86 92 94 96 97 97 94 90 83 78 80 72 59 65 73 77 85 101 114 121 123 131 138 139 138 136 126 118 107 96 83 76 71 66 60 53 47 42
86 87 88 88 88 88 92 98 104 109 109 106 105 99 90 87 82 72 58 68 81 90 96 108 118 124 130 132 139 141 137 129 118 109 100 91 84 76 66 64 58 52 45
96 101 102 104 107 108 108 108 109 109 117 121 117 112 102 97 85 84 65 65 78 94 94 105 112 121 119 121 122 131 139 139 127 115 101 94 84 78 74 70 60 51 43
95 108 116 120 123 129 130 127 123 121 119 121 129 125 117 103 93 85 80 68 81 88 94 102 108 110 102 113 103 118 135 131 128 112 100 95 86 79 73 78 61 53 46
115 123 125 125 126 125 123 129 126 121 121 123 120 131 125 114 98 88 83 83 76 85 90 97 100 98 90 102 90 102 105 110 114 109 107 102 95 81 83 73 60 51 45
121 126 127 122 117 112 106 107 97 103 101 111 102 103 117 114 105 90 88 82 79 85 97 103 97 89 70 82 84 101 91 106 111 113 112 105 92 83 84 70 57 54 49
117 119 110 100 99 94 88 83 81 80 82 82 80 83 88 82 101 93 88 78 80 77 91 102 89 76 65 82 79 94 92 101 109 115 108 95 84 87 75 65 61 51 46
101 100 94 88 85 84 81 80 78 81 78 82 82 75 74 79 83 73 80 78 68 74 83 98 84 76 68 90 86 102 94 99 96 96 97 91 87 79 69 64 56 49 45
87 85 84 86 86 85 87 91 80 78 79 83 90 93 103 94 82 70 60 61 49 48 83 91 80 83 81 90 90 103 101 99 95 91 87 84 82 75 67 61 54 47 46
81 83 84 81 81 83 83 84 88 82 72 72 72 78 86 91 84 78 70 62 52 47 89 87 84 85 80 86 89 105 107 101 94 90 87 86 77 70 67 57 52 49 42
79 82 83 82 79 80 81 82 81 78 77 77 55 55 49 57 61 68 74 59 55 56 88 85 80 78 78 94 94 97 94 92 85 89 88 84 84 80 71 61 53 44 35
74 79 80 81 81 81 81 82 80 76 73 73 66 49 31 38 44 59 58 67 57 62 79 78 75 73 80 83 90 97 98 93 88 88 87 87 79 68 59 51 45 41 37
69 69 69 72 76 77 75 71 69 67 64 62 53 44 36 37 35 34 54 66 54 54 70 72 72 75 79 84 92 93 94 95 92 88 83 77 67 62 56 47 43 36 31
65 68 64 63 66 69 68 68 62 56 51 47 42 39 36 38 34 26 35 60 47 41 68 71 74 67 63 74 82 86 89 93 89 81 74 68 60 52 45 42 36 34 30
57 54 55 54 53 54 56 55 45 42 41 46 42 38 33 27 26 23 33 45 44 42 55 69 63 61 61 68 72 75 83 80 78 74 67 57 49 44 42 40 35 30 25
47 47 46 46 43 41 39 34 34 34 31 29 28 25 20 15 10 20 33 40 36 32 27 44 54 60 56 53 50 54 66 70 70 63 55 50 46 46 43 36 30 25 23
42 41 42 41 40 38 37 35 32 29 26 24 21 16 10 1 13 25 26 26 22 27 34 40 45 47 39 33 38 46 53 54 51 47 42 40 41 39 35 32 28 24 22
44 42 40 40 40 38 37 36 34 32 30 28 23 17 12 10 17 17 15 17 23 31 38 41 37 34 35 45 53 55 54 49 43 40 37 41 39 34 30 27 23 21 25
50 47 45 43 42 40 39 39 38 37 36 32 27 23 19 18 20 20 22 26 33 40 43 42 44 46 48 50 48 43 39 37 36 38 38 35 31 28 24 19 18 22 27
Wind_Direction_850mb
1 1 1 359 359 359 2 343 319 307 299 284 274 271 270 264 252 244 243 241 237 235 234 233 232 231 231 230 229 230 232 231 230 232 225 226 223 224 232 233 239 254 276
359 351 351 350 350 352 354 350 349 328 307 299 284 269 263 264 262 253 246 244 239 235 236 236 234 232 231 231 229 230 232 232 232 234 230 226 225 229 233 236 240 250 268
354 348 349 347 345 346 343 344 345 339 336 321 296 285 274 264 259 258 256 250 245 241 238 238 237 236 234 231 229 227 229 230 231 231 230 228 228 228 230 235 238 248 264
345 346 344 342 342 340 337 334 333 335 331 328 326 306 284 277 265 259 256 253 251 247 243 240 238 239 237 235 232 232 229 228 228 227 228 229 228 227 228 233 237 243 258
334 336 338 337 333 332 333 331 327 324 324 323 321 320 312 287 274 265 259 258 255 252 249 244 241 240 240 239 237 234 231 228 227 227 226 226 227 228 230 233 236 242 255
323 325 327 327 327 328 327 327 325 323 323 320 315 311 307 307 286 275 267 262 261 255 251 247 243 241 241 238 237 237 238 235 230 228 229 230 230 231 230 233 239 245 247
312 312 315 315 315 316 319 320 320 320 320 318 316 310 302 299 298 282 271 263 262 261 256 252 248 244 242 239 238 236 236 235 237 240 235 234 231 231 233 234 238 243 243
304 302 303 302 303 307 310 311 313 313 312 311 310 309 303 295 295 293 272 266 256 256 259 255 252 249 246 241 237 235 234 232 231 230 231 237 238 235 233 235 236 236 238
305 303 303 301 299 298 298 301 303 304 304 304 302 302 303 297 294 287 272 261 260 252 256 257 253 250 248 246 238 236 234 233 230 228 228 228 228 231 230 229 228 229 232
307 304 303 300 298 296 294 292 292 292 294 296 296 295 295 295 292 287 277 261 258 257 254 254 252 250 246 247 242 238 235 231 226 223 222 225 226 229 232 233 228 225 226
303 301 299 298 297 296 295 292 290 288 286 285 288 289 288 287 289 287 281 266 258 251 246 247 249 244 239 244 237 240 240 235 228 225 223 222 221 221 227 230 224 223 223
301 300 298 297 295 295 293 292 289 287 284 281 279 281 283 283 284 282 279 272 256 247 243 245 246 248 246 242 227 231 230 228 228 221 218 217 218 220 229 224 223 223 225
303 300 299 298 295 294 293 291 288 287 283 280 278 275 276 277 278 279 276 271 265 241 244 244 246 248 243 230 219 218 221 223 225 218 217 215 217 227 222 218 220 223 228
303 302 302 300 298 295 290 285 283 280 277 274 272 268 269 269 272 272 272 273 267 251 239 241 239 239 242 227 215 213 210 223 222 218 214 214 217 217 214 215 218 223 232
307 304 300 298 296 294 289 285 280 276 272 273 271 269 268 266 264 269 270 269 266 256 234 233 228 232 230 214 209 207 208 212 208 209 208 209 212 210 208 211 216 224 232
300 299 297 295 294 292 290 289 286 280 277 272 269 266 265 260 265 262 262 260 260 253 230 222 215 219 221 204 198 200 203 205 207 208 208 210 206 205 207 209 216 225 236
306 306 303 297 293 290 289 288 289 292 287 280 274 267 261 262 257 259 263 258 255 233 223 218 215 214 216 201 198 200 197 206 210 208 207 204 204 204 204 210 218 225 231
315 312 305 299 295 292 290 288 287 288 291 292 285 274 266 265 246 248 253 254 250 225 219 215 213 214 210 201 199 197 197 199 201 202 202 204 198 202 204 206 214 221 232
315 310 307 304 302 298 293 289 286 285 285 290 296 288 279 267 260 250 238 234 245 231 216 210 213 205 206 196 200 203 203 199 203 201 202 201 201 200 200 204 214 225 231
316 316 317 313 310 305 300 292 287 285 285 288 294 297 290 288 283 254 230 225 240 231 213 204 203 199 206 210 206 206 204 204 204 203 201 200 196 198 206 209 214 221 237
326 324 325 322 316 315 313 306 306 302 296 294 298 300 291 290 287 263 235 219 234 230 207 204 201 208 218 217 214 209 205 205 205 203 200 195 196 199 200 207 214 225 240
330 331 334 333 333 331 322 318 314 313 313 310 307 302 303 287 271 263 223 207 223 230 214 212 213 218 218 220 218 214 207 205 201 197 193 190 191 194 204 210 217 229 247
343 344 346 347 347 347 348 345 338 329 321 315 317 318 324 326 272 231 218 221 230 231 213 209 211 207 209 212 216 214 205 197 193 190 186 185 190 199 204 210 220 237 258
358 358 357 359 2 4 6 6 5 2 358 355 354 351 341 287 190 186 198 201 206 192 186 187 193 196 193 193 191 186 182 179 177 178 181 186 195 201 207 214 224 241 269
18 17 16 15 16 18 20 22 22 23 22 22 27 34 48 101 139 137 157 168 175 175 168 167 169 165 161 159 160 164 167 169 173 176 178 190 198 203 207 217 235 262 283
33 34 35 35 34 33 32 33 34 33 32 35 44 57 74 96 106 111 124 135 140 142 141 141 141 144 149 154 158 159 162 164 169 179 187 193 199 206 215 228 244 275 293